Terminal Aerodrome Forecast
Issued by NWS

Home | Current Version | Previous Version | Text Only | Print | Product List | Glossary On
Versions: 1 2 3 4 5 6 7 8 9 10 11 12 13 14 15 16 17 18 19 20 21
595
FTUS46 KSEW 191125
TAFBFI
TAF
KBFI 191125Z 1912/2012 11003KT 6SM -RA SCT020 BKN030 OVC050
     FM191900 17012G20KT P6SM -SHRA SCT035 BKN050
     FM200500 16010KT P6SM -SHRA BKN040=

USA.gov is the U.S. government's official web portal to all federal, state and local government web resources and services.